sat.trackr.live / text

‹ back to catalog

GEESAT-3 04

NORAD 61014 · 2024-159D

PAYLOAD ACTIVE UNKNOWN

§ Identity

Operator
Country
PRC
Launch date
2024-09-05
Launch site
TAISC
Launch vehicle
Mass (kg)
RCS (m²)

External: N2YO · Heavens-Above · Gunter

§ Orbital elements

Epoch: 2026-09-22T17:24:34.118496Z

Period
97.07 min
Inclination
49.9981°
Eccentricity
0.0001927
Mean motion
14.83398142 rev/d
Perigee alt
617.3 km
Apogee alt
620.0 km
Semi-major
6,996.8 km
B*
1.8967e-4
RAAN
262.2903°
Arg perigee
75.1046°
Mean anomaly
285.0105°
Rev number
11,248

§ Raw data

GEESAT-3 041 61014U 24159D   26265.72539489  .00001347  00000+0  18967-3 0  99992 61014  49.9981 262.2903 0001927  75.1046 285.0105 14.83398142112480

JSON: /api/v1/satellites/61014 · /tle

For live sub-satellite position, see the globe view (requires WebGL).

§ Visibility from observer

Set your observer location to see the next 7 days of passes ≥ 10°. The values pass through the URL so the page stays shareable.

No JS? Fill the form by hand. The geolocation button needs JavaScript.